DELTA 1 DEB, 12530

Orbit data source: Space-Track

DELTA 1 DEB, 12530 is space debris in SSO originally from a launch on Thu, 29 Jul 1976 UTC launched from the Air Force Western Test Range (AFWTR). Debris objects in space refer to the collection of defunct objects orbiting the Earth. Examples of debris include non-operational satellites, rocket bodies, and fragments generated from explosions, collisions, or faulty payload assembly.

Loading next visibility...
Identifier
12530, 1976-077DK
Orbit
SSO
Country
Flag of USUS
Related business
Manufacturer
Unknown
Mission
Spacecraft
Bus & Motor
Unknown
Mass
Unknown
Launch date (UTC)
1976-07-29 (50 years ago)
Launch vehicle
Unknown
Launch site
Air Force Western Test Range (AFWTR)
Object type
Payload
Rocket body
Debris
Shape & HBR
Unknown shape, 0.4 m
Radar Cross Section
Medium (>0.1 m² and <1 m²)

Expand to show TLE details & history
Last TLE update: 3 days ago

TLE from 3 days ago
0 DELTA 1 DEB
1 12530U 76077DK  26171.43563883 -.00000028  00000-0  16274-3 0  9999
2 12530 102.5633 160.3122 0126297 312.9463 204.4109 12.27056014 83484
Epoch: 2026-06-20T10:27Z
TLE epoch observation values (Epoch: 2026-06-20T10:27:19.194Z)
Latitude
22.66247°
Longitude
-79.85462°
Altitude
1,655.886 km
Speed
7.006 km/s
True Right ascension
23h 02m 30s
True Declination
22° 33' 15"
Sunlit
Object was in daylight at epoch
Visualization orbit readout
Latitude
Unknown
Longitude
Unknown
Altitude
Unknown
Speed
Unknown
Apparent Right ascension
Unknown
Apparent Declination
Unknown
Sunlit
N/A
Visualization observer readout
Local Sidereal Time
13:18:29
Azimuth
Unknown
Elevation
Unknown
Doppler factor
Unknown
Orbital elements
Apogee altitude
1,659.832 km
Perigee altitude
1,459.33 km
Semi-major axis
7,937.718 km
Eccentricity
0.01263
Inclination
102.5633°
RAAN
160.3122°
Arg. of periapsis
312.9463°
True anomaly
203.82127°
Mean anomaly
204.4109°
Eccentric anomaly
204.11524°
Mean motion
3.06902 °/min
Orbital period
117.3 mins
BSTAR
0.00016274
Loading maneuver chart data...
Computing Atmospheric mass density...
Loading historical data...
Loading historical data...
Loading historical data...
Loading historical data...
Loading historical data...
Loading historical data...
Loading historical data...

Documentation

Showing up to 5 results
|